TimeCST,TemperatureF,Dew PointF,Humidity,Sea Level PressureIn,VisibilityMPH,Wind Direction,Wind SpeedMPH,Gust SpeedMPH,PrecipitationIn,Events,Conditions,WindDirDegrees,DateUTC
12:15 AM,14.0,8.6,79,30.03,2.5,South,3.5,-,N/A,,Overcast,190,2013-02-03 06:15:00
12:35 AM,14.0,10.4,86,30.02,10.0,South,3.5,-,N/A,,Overcast,190,2013-02-03 06:35:00
12:55 AM,15.8,10.4,79,30.01,10.0,South,3.5,-,N/A,,Overcast,180,2013-02-03 06:55:00
1:15 AM,15.8,10.4,79,30.00,8.0,South,4.6,-,N/A,,Overcast,180,2013-02-03 07:15:00
1:35 AM,15.8,10.4,79,30.00,10.0,South,3.5,-,N/A,,Overcast,170,2013-02-03 07:35:00
1:55 AM,15.8,10.4,79,29.99,10.0,SSE,4.6,-,N/A,,Overcast,160,2013-02-03 07:55:00
2:15 AM,15.8,10.4,79,30.00,10.0,South,3.5,-,N/A,,Overcast,180,2013-02-03 08:15:00
2:35 AM,15.8,10.4,79,29.99,10.0,SSE,5.8,-,N/A,,Overcast,160,2013-02-03 08:35:00
2:55 AM,15.8,10.4,79,29.97,10.0,SSE,5.8,-,N/A,,Overcast,150,2013-02-03 08:55:00
3:15 AM,15.8,10.4,79,29.97,9.0,South,5.8,-,N/A,,Overcast,170,2013-02-03 09:15:00
3:55 AM,15.8,12.2,86,29.97,1.8,SSW,5.8,-,N/A,,Overcast,210,2013-02-03 09:55:00
4:15 AM,15.8,12.2,86,29.98,2.0,SW,5.8,-,N/A,,Overcast,220,2013-02-03 10:15:00
4:35 AM,15.8,12.2,86,29.98,2.0,WSW,5.8,-,N/A,,Overcast,240,2013-02-03 10:35:00
4:55 AM,17.6,14.0,86,29.99,2.5,West,8.1,-,N/A,,Mostly Cloudy,260,2013-02-03 10:55:00
5:15 AM,17.6,14.0,86,29.99,5.0,West,8.1,-,N/A,,Mostly Cloudy,270,2013-02-03 11:15:00
5:35 AM,17.6,14.0,86,29.99,5.0,West,9.2,-,N/A,,Mostly Cloudy,280,2013-02-03 11:35:00
5:55 AM,17.6,14.0,86,29.99,5.0,WNW,11.5,-,N/A,,Overcast,290,2013-02-03 11:55:00
6:15 AM,19.4,15.8,86,29.99,8.0,NW,17.3,-,N/A,,Overcast,310,2013-02-03 12:15:00
6:35 AM,19.4,14.0,80,30.00,10.0,NW,18.4,24.2,N/A,,Overcast,320,2013-02-03 12:35:00
6:55 AM,19.4,14.0,80,30.01,10.0,NW,18.4,-,N/A,,Overcast,320,2013-02-03 12:55:00
7:15 AM,19.4,14.0,80,30.02,10.0,NW,17.3,-,N/A,,Overcast,320,2013-02-03 13:15:00
7:35 AM,19.4,14.0,80,30.03,8.0,NW,16.1,-,N/A,,Overcast,310,2013-02-03 13:35:00
7:55 AM,19.4,12.2,74,30.04,10.0,NW,17.3,-,N/A,,Overcast,320,2013-02-03 13:55:00
8:15 AM,19.4,12.2,74,30.05,10.0,WNW,17.3,-,N/A,,Overcast,300,2013-02-03 14:15:00
8:35 AM,17.6,10.4,73,30.06,8.0,NW,21.9,-,N/A,,Overcast,310,2013-02-03 14:35:00
8:55 AM,17.6,8.6,68,30.07,10.0,NW,23.0,27.6,N/A,,Scattered Clouds,310,2013-02-03 14:55:00
9:15 AM,17.6,8.6,68,30.07,10.0,NW,19.6,-,N/A,,Scattered Clouds,310,2013-02-03 15:15:00
9:35 AM,17.6,8.6,68,30.08,10.0,NW,19.6,-,N/A,,Partly Cloudy,310,2013-02-03 15:35:00
9:55 AM,17.6,8.6,68,30.08,10.0,NW,19.6,-,N/A,,Clear,310,2013-02-03 15:55:00
10:15 AM,17.6,8.6,68,30.08,10.0,NW,18.4,-,N/A,,Clear,310,2013-02-03 16:15:00
10:35 AM,17.6,8.6,68,30.10,10.0,WNW,19.6,-,N/A,,Clear,300,2013-02-03 16:35:00
10:55 AM,17.6,8.6,68,30.10,10.0,WNW,19.6,-,N/A,,Clear,300,2013-02-03 16:55:00
11:15 AM,17.6,8.6,68,30.10,10.0,WNW,21.9,-,N/A,,Clear,290,2013-02-03 17:15:00
11:35 AM,17.6,8.6,68,30.11,10.0,West,18.4,-,N/A,,Clear,280,2013-02-03 17:35:00
11:55 AM,17.6,8.6,68,30.11,10.0,WNW,20.7,-,N/A,,Clear,290,2013-02-03 17:55:00
12:15 PM,17.6,10.4,73,30.11,10.0,WNW,23.0,27.6,N/A,,Clear,290,2013-02-03 18:15:00
12:35 PM,19.4,10.4,68,30.10,10.0,WNW,19.6,28.8,N/A,,Clear,290,2013-02-03 18:35:00
12:55 PM,19.4,10.4,68,30.09,10.0,West,17.3,-,N/A,,Clear,280,2013-02-03 18:55:00
1:15 PM,19.4,10.4,68,30.10,10.0,West,19.6,-,N/A,,Scattered Clouds,280,2013-02-03 19:15:00
1:35 PM,19.4,10.4,68,30.10,10.0,WNW,20.7,-,N/A,,Partly Cloudy,290,2013-02-03 19:35:00
1:55 PM,21.2,12.2,68,30.09,10.0,WNW,17.3,-,N/A,,Partly Cloudy,290,2013-02-03 19:55:00
2:15 PM,21.2,12.2,68,30.09,10.0,West,19.6,-,N/A,,Mostly Cloudy,280,2013-02-03 20:15:00
2:35 PM,21.2,10.4,63,30.08,10.0,West,17.3,-,N/A,,Mostly Cloudy,280,2013-02-03 20:35:00
2:55 PM,21.2,12.2,68,30.08,10.0,West,17.3,-,N/A,,Mostly Cloudy,270,2013-02-03 20:55:00
3:15 PM,21.2,12.2,68,30.08,10.0,West,13.8,-,N/A,,Mostly Cloudy,280,2013-02-03 21:15:00
3:35 PM,21.2,12.2,68,30.08,10.0,WNW,13.8,-,N/A,,Mostly Cloudy,290,2013-02-03 21:35:00
3:55 PM,21.2,12.2,68,30.07,10.0,West,12.7,-,N/A,,Overcast,280,2013-02-03 21:55:00
4:15 PM,21.2,12.2,68,30.07,10.0,West,12.7,-,N/A,,Overcast,280,2013-02-03 22:15:00
4:35 PM,21.2,12.2,68,30.06,10.0,West,11.5,-,N/A,,Overcast,280,2013-02-03 22:35:00
4:55 PM,21.2,12.2,68,30.06,10.0,West,9.2,-,N/A,,Overcast,280,2013-02-03 22:55:00
5:15 PM,21.2,12.2,68,30.05,10.0,WNW,11.5,-,N/A,,Overcast,290,2013-02-03 23:15:00
5:35 PM,21.2,12.2,68,30.05,10.0,West,8.1,-,N/A,,Overcast,280,2013-02-03 23:35:00
5:55 PM,21.2,12.2,68,30.05,10.0,West,5.8,-,N/A,,Overcast,280,2013-02-03 23:55:00
6:15 PM,21.2,14.0,74,30.06,10.0,WSW,5.8,-,N/A,,Mostly Cloudy,250,2013-02-04 00:15:00
6:35 PM,21.2,14.0,74,30.06,10.0,WSW,8.1,-,N/A,,Scattered Clouds,250,2013-02-04 00:35:00
6:55 PM,21.2,14.0,74,30.06,10.0,WSW,9.2,-,N/A,,Partly Cloudy,250,2013-02-04 00:55:00
7:15 PM,21.2,14.0,74,30.05,10.0,WSW,6.9,-,N/A,,Scattered Clouds,250,2013-02-04 01:15:00
7:35 PM,21.2,14.0,74,30.05,10.0,WSW,5.8,-,N/A,,Mostly Cloudy,250,2013-02-04 01:35:00
7:55 PM,19.4,14.0,80,30.06,10.0,WSW,3.5,-,N/A,,Scattered Clouds,240,2013-02-04 01:55:00
8:15 PM,19.4,14.0,80,30.06,10.0,WSW,4.6,-,N/A,,Scattered Clouds,240,2013-02-04 02:15:00
8:35 PM,21.2,14.0,74,30.06,10.0,Calm,Calm,-,N/A,,Mostly Cloudy,0,2013-02-04 02:35:00
8:55 PM,21.2,15.8,80,30.06,10.0,Calm,Calm,-,N/A,,Mostly Cloudy,0,2013-02-04 02:55:00
9:15 PM,21.2,14.0,74,30.05,10.0,SE,3.5,-,N/A,,Mostly Cloudy,140,2013-02-04 03:15:00
9:35 PM,21.2,14.0,74,30.04,10.0,SE,4.6,-,N/A,,Mostly Cloudy,130,2013-02-04 03:35:00
9:55 PM,21.2,15.8,80,30.03,10.0,ESE,5.8,-,N/A,,Scattered Clouds,120,2013-02-04 03:55:00
10:15 PM,21.2,15.8,80,30.02,10.0,ESE,5.8,-,N/A,,Mostly Cloudy,110,2013-02-04 04:15:00
10:35 PM,21.2,15.8,80,30.02,10.0,East,5.8,-,N/A,,Overcast,100,2013-02-04 04:35:00
10:55 PM,21.2,15.8,80,30.00,10.0,East,9.2,-,N/A,,Overcast,100,2013-02-04 04:55:00
11:15 PM,23.0,15.8,74,29.99,10.0,ESE,9.2,-,N/A,,Overcast,110,2013-02-04 05:15:00
11:35 PM,23.0,15.8,74,29.97,10.0,ESE,10.4,-,N/A,,Scattered Clouds,110,2013-02-04 05:35:00
11:55 PM,23.0,15.8,74,29.96,10.0,ESE,10.4,-,N/A,,Clear,110,2013-02-04 05:55:00